Date String (YYYY-MM-DD hh:mm:ss) UTC,Instrument flags,Ambient pressure (hPa),Sample flow (lpm),Bypass flow (lpm),Sample temperature (°C),Ambient temperature (°C),ASC tube jacket temperature (°C),LED temperature (°C),Box temperature (°C),Sample RH (%),Span deviation,Mass concentration (μg/m³),Mass concentration (μg/m³),Mass concentration (μg/m³)
DateTimeUTC,F1_M11,P_M11,Q1_M11,Q2_M11,T1_M11,T2_M11,T3_M11,T4_M11,T5_M11,U1_M11,ZSPAN_M11,X0_M11,X2_M11,X1_M11
2022-12-29 00:00:00,,0810.5,4.99,0.00,25.4,24.1,00.0,34.3,27.3,18.5,0000.0,0006.60,0003.12,0002.75
2022-12-29 00:01:00,,0810.5,4.99,0.00,25.4,24.1,00.0,34.3,27.3,18.5,0000.0,0006.22,0003.09,0002.73
2022-12-29 00:02:00,,0810.5,5.00,0.00,25.4,24.1,00.0,34.3,27.3,18.4,0000.0,0005.43,0003.05,0002.71
2022-12-29 00:03:00,,0810.5,5.00,0.00,25.4,24.1,00.0,34.3,27.3,18.6,0000.0,0005.26,0003.01,0002.68
2022-12-29 00:04:00,,0810.5,5.00,0.00,25.4,24.1,00.0,34.3,27.3,18.7,0000.0,0005.23,0002.99,0002.67
2022-12-29 00:05:00,,0810.5,5.00,0.00,25.5,24.1,00.0,34.3,27.3,18.9,0000.0,0005.19,0002.99,0002.67
2022-12-29 00:06:00,,0810.5,5.00,0.00,25.5,24.1,00.0,34.3,27.4,18.7,0000.0,0004.48,0002.99,0002.66
2022-12-29 00:07:00,,0810.6,5.00,0.00,25.5,24.1,00.0,34.3,27.3,18.7,0000.0,0004.34,0002.99,0002.64
2022-12-29 00:08:00,,0810.6,5.00,0.00,25.5,24.1,00.0,34.3,27.4,18.7,0000.0,0004.30,0002.98,0002.63
2022-12-29 00:09:00,,0810.6,5.00,0.00,25.5,24.1,00.0,34.3,27.4,18.8,0000.0,0003.92,0002.94,0002.61
2022-12-29 00:10:00,,0810.6,5.00,0.00,25.5,24.1,00.0,34.3,27.4,18.8,0000.0,0003.88,0002.94,0002.60
2022-12-29 00:11:00,,0810.6,5.00,0.00,25.5,24.1,00.0,34.3,27.4,19.0,0000.0,0003.74,0002.90,0002.60
2022-12-29 00:12:00,,0810.6,5.00,0.00,25.5,24.1,00.0,34.3,27.4,19.1,0000.0,0003.80,0002.90,0002.60
2022-12-29 00:13:00,,0810.6,5.00,0.00,25.5,24.1,00.0,34.3,27.3,19.1,0000.0,0003.83,0002.91,0002.59
2022-12-29 00:14:00,,0810.6,5.00,0.00,25.4,24.1,00.0,34.3,27.3,18.9,0000.0,0003.85,0002.91,0002.60
2022-12-29 00:15:00,,0810.6,5.00,0.00,25.4,24.1,00.0,34.3,27.3,19.0,0000.0,0003.91,0002.93,0002.59
2022-12-29 00:16:00,,0810.6,5.00,0.00,25.4,24.1,00.0,34.3,27.3,19.2,0000.0,0003.79,0002.90,0002.59
2022-12-29 00:17:00,,0810.6,5.00,0.00,25.4,24.1,00.0,34.3,27.3,19.2,0000.0,0004.26,0002.93,0002.58
2022-12-29 00:18:00,,0810.6,5.00,0.00,25.4,24.1,00.0,34.3,27.3,19.3,0000.0,0004.45,0002.95,0002.59
2022-12-29 00:19:00,,0810.6,5.00,0.00,25.4,24.1,00.0,34.3,27.3,19.3,0000.0,0004.57,0002.97,0002.61
2022-12-29 00:20:00,,0810.6,5.00,0.00,25.4,24.1,00.0,34.3,27.3,19.2,0000.0,0004.68,0002.98,0002.61
2022-12-29 00:21:00,,0810.6,5.00,0.00,25.4,24.0,00.0,34.3,27.2,19.2,0000.0,0004.66,0002.97,0002.61
2022-12-29 00:22:00,,0810.6,5.00,0.00,25.4,23.8,00.0,34.3,27.2,19.2,0000.0,0004.74,0002.99,0002.59
2022-12-29 00:23:00,,0810.6,4.99,0.00,25.3,23.8,00.0,34.3,27.1,19.3,0000.0,0004.64,0002.97,0002.57
2022-12-29 00:24:00,,0810.6,5.00,0.00,25.3,23.8,00.0,34.3,27.1,19.3,0000.0,0004.70,0002.95,0002.56
2022-12-29 00:25:00,,0810.6,5.00,0.00,25.3,23.8,00.0,34.3,27.1,19.3,0000.0,0004.85,0002.98,0002.55
2022-12-29 00:26:00,,0810.6,5.00,0.00,25.3,23.9,00.0,34.3,27.1,19.3,0000.0,0004.72,0002.93,0002.54
2022-12-29 00:27:00,,0810.6,5.00,0.00,25.3,23.9,00.0,34.3,27.1,19.3,0000.0,0004.66,0002.90,0002.53
2022-12-29 00:28:00,,0810.7,5.00,0.00,25.3,23.9,00.0,34.2,27.1,19.4,0000.0,0004.29,0002.87,0002.52
2022-12-29 00:29:00,,0810.7,5.00,0.00,25.3,23.9,00.0,34.2,27.1,19.3,0000.0,0004.13,0002.84,0002.50
2022-12-29 00:30:00,,0810.7,5.00,0.00,25.3,23.9,00.0,34.2,27.1,19.4,0000.0,0004.20,0002.87,0002.51
2022-12-29 00:31:00,,0810.7,4.99,0.00,25.3,24.0,00.0,34.2,27.1,19.5,0000.0,0004.12,0002.90,0002.53
2022-12-29 00:32:00,,0810.8,5.00,0.00,25.3,24.0,00.0,34.2,27.1,19.6,0000.0,0004.29,0002.98,0002.57
2022-12-29 00:33:00,,0810.7,5.00,0.00,25.3,24.0,00.0,34.2,27.2,19.6,0000.0,0004.29,0002.97,0002.59
2022-12-29 00:34:00,,0810.8,5.00,0.00,25.3,24.0,00.0,34.2,27.2,19.6,0000.0,0004.30,0002.99,0002.60
2022-12-29 00:35:00,,0810.7,4.99,0.00,25.3,23.9,00.0,34.2,27.2,19.6,0000.0,0004.20,0003.01,0002.62
2022-12-29 00:36:00,,0810.7,4.99,0.00,25.3,23.8,00.0,34.2,27.1,19.7,0000.0,0004.14,0003.03,0002.66
2022-12-29 00:37:00,,0810.7,5.00,0.00,25.3,23.9,00.0,34.2,27.1,19.7,0000.0,0004.21,0003.08,0002.71
2022-12-29 00:38:00,,0810.8,5.00,0.00,25.2,23.9,00.0,34.2,27.1,19.8,0000.0,0004.36,0003.13,0002.74
2022-12-29 00:39:00,,0810.8,5.00,0.00,25.2,23.8,00.0,34.2,27.1,20.0,0000.0,0004.57,0003.16,0002.78
2022-12-29 00:40:00,,0810.9,5.01,0.00,25.2,23.8,00.0,34.2,27.0,20.3,0000.0,0004.63,0003.21,0002.86
2022-12-29 00:41:00,,0810.8,4.99,0.00,25.2,23.8,00.0,34.2,27.0,20.3,0000.0,0004.70,0003.23,0002.91
2022-12-29 00:42:00,,0810.8,4.99,0.00,25.2,23.8,00.0,34.1,27.0,20.4,0000.0,0004.85,0003.25,0002.94
2022-12-29 00:43:00,,0810.9,5.01,0.00,25.1,23.7,00.0,34.1,27.0,20.5,0000.0,0004.80,0003.25,0002.95
2022-12-29 00:44:00,,0810.8,5.00,0.00,25.1,23.7,00.0,34.1,26.9,20.6,0000.0,0004.87,0003.28,0002.99
2022-12-29 00:45:00,,0810.9,5.00,0.00,25.1,23.6,00.0,34.1,26.9,20.7,0000.0,0005.23,0003.33,0003.03
2022-12-29 00:46:00,,0810.9,5.00,0.00,25.1,23.5,00.0,34.1,26.8,20.9,0000.0,0005.47,0003.38,0003.07
2022-12-29 00:47:00,,0810.9,5.01,0.00,25.0,23.4,00.0,34.1,26.8,21.0,0000.0,0005.97,0003.42,0003.09
2022-12-29 00:48:00,,0810.9,4.99,0.00,25.0,23.3,00.0,34.1,26.7,21.1,0000.0,0006.20,0003.45,0003.08
2022-12-29 00:49:00,,0810.9,5.00,0.00,25.0,23.3,00.0,34.0,26.7,21.2,0000.0,0006.27,0003.46,0003.07
2022-12-29 00:50:00,,0810.9,5.00,0.00,25.0,23.2,00.0,34.0,26.7,21.2,0000.0,0006.04,0003.44,0003.01
2022-12-29 00:51:00,,0811.0,5.00,0.00,24.9,23.2,00.0,34.0,26.6,21.3,0000.0,0005.90,0003.38,0002.91
2022-12-29 00:52:00,,0811.0,5.01,0.00,24.9,23.1,00.0,34.0,26.6,21.3,0000.0,0005.76,0003.33,0002.80
2022-12-29 00:53:00,,0811.0,5.00,0.00,24.9,23.0,00.0,34.0,26.5,21.4,0000.0,0005.61,0003.27,0002.69
2022-12-29 00:54:00,,0811.0,5.01,0.00,24.8,22.9,00.0,33.9,26.5,21.4,0000.0,0005.56,0003.22,0002.59
2022-12-29 00:55:00,,0811.0,5.00,0.00,24.8,22.9,00.0,33.9,26.4,21.4,0000.0,0005.42,0003.13,0002.46
2022-12-29 00:56:00,,0810.9,5.00,0.00,24.7,22.8,00.0,33.9,26.4,21.4,0000.0,0005.03,0002.97,0002.31
2022-12-29 00:57:00,,0811.0,5.00,0.00,24.7,22.8,00.0,33.9,26.3,21.4,0000.0,0004.85,0002.82,0002.19
2022-12-29 00:58:00,,0811.0,4.99,0.00,24.7,22.7,00.0,33.8,26.3,21.3,0000.0,0004.27,0002.64,0002.07
2022-12-29 00:59:00,,0811.0,5.00,0.00,24.6,22.7,00.0,33.8,26.2,21.3,0000.0,0004.02,0002.50,0001.97
